Weather observations for the past three days for
Dansville, Dansville Municipal Airport
Imperial (Metric)
Date Time (edt) Wind (mph) Vis. (mi.) Weather Sky Cond. Temperature (ºF) Relative Humidity Wind Chill (°F) Heat Index (°F) Pressure Precipitation (in)
Air Dwpt 6 hour altimeter (in) sea level (mb) 1 hr 3 hr 6 hr
Max. Min.
21 04:54 SE 6 9.00 Fair CLR 71.1 68 90% 30.23 1023.9
21 03:54 SE 5 9.00 Fair CLR 72 68 87% 30.23 1024.0
21 02:54 SE 7 9.00 Fair CLR 73 69.1 87% 30.24 1024.2
21 01:54 Calm 8.00 Fair CLR 73 70 84 73 90% 30.25 1024.8
21 00:54 Calm 10.00 A Few Clouds FEW065 75.9 71.1 85% 76 30.26 1024.8
20 23:54 SE 3 10.00 Mostly Cloudy BKN060 75.9 71.1 85% 76 30.26 1025.0
20 22:54 Calm 9.00 Fair CLR 77 72 85% 78 30.26 1025.0
20 21:54 Calm 10.00 Fair CLR 79 73 82% 82 30.26 1025.1
20 20:54 Calm 10.00 Fair CLR 81 73 77% 86 30.25 1024.6
20 19:54 SE 5 10.00 Fair CLR 84 71.1 93 82.9 65% 89 30.24 1024.5
20 18:54 SE 9 10.00 Fair CLR 86 72 63% 92 30.25 1024.6
20 17:54 SE 7 10.00 Fair CLR 87.1 70 57% 92 30.24 1024.4
20 16:54 SE 7 10.00 Fair CLR 87.1 69.1 55% 91 30.26 1024.9
20 15:54 S 13 10.00 Overcast BKN048 BKN070 OVC085 84.9 69.1 59% 89 30.28 1025.8
20 14:54 NW 9 10.00 A Few Clouds FEW095 91.9 70 49% 98 30.28 1025.6
20 13:54 N 6 10.00 Fair CLR 91 69.1 91.9 75.9 49% 96 30.29 1026.0
20 12:54 N 7 10.00 Fair CLR 91 66.9 45% 94 30.3 1026.2
20 11:54 Calm 10.00 Fair CLR 89.1 72 57% 96 30.31 1026.8
20 10:54 E 5 10.00 Fair CLR 84 72 67% 90 30.32 1026.9
20 09:54 NE 3 10.00 Fair CLR 81 71.1 72% 85 30.31 1026.7
20 08:54 SE 5 10.00 Fair CLR 78.1 70 76% 80 30.31 1026.5
20 07:54 SE 5 10.00 Fair CLR 75.9 70 75.9 69.1 82% 77 30.33 1027.2
20 06:54 S 3 8.00 A Few Clouds FEW049 71.1 66.9 87% 30.34 1027.7
20 05:54 Calm 5.00 Fog/Mist FEW050 FEW080 70 66.9 90% 30.34 1027.6
20 04:54 E 3 10.00 Fair CLR 70 66.9 90% 30.31 1026.6
20 03:54 SE 5 10.00 Fair CLR 70 66.9 90% 30.3 1026.4
20 02:54 S 8 10.00 Fair CLR 71.1 68 90% 30.29 1026.2
20 01:54 Vrbl 3 10.00 Fair CLR 72 66.9 90 70 84% 30.31 1026.7 0.47
20 00:54 SE 8 10.00 A Few Clouds FEW070 FEW095 73.9 66 76% 30.31 1026.7
19 23:54 E 8 10.00 Thunderstorm FEW036 SCT070 BKN095 71.1 66.9 87% 30.33 1027.5 0.2
19 22:54 Vrbl 3 1.00 Thunderstorm Heavy Rain BKN046 BKN065 OVC090 73 68 84% 30.34 1027.9 0.21 0.27
19 21:54 W 8 4.00 Thunderstorm Rain FEW042 BKN050 OVC085 80.1 70 71% 83 30.27 1025.3 0.06
19 20:54 Calm 9.00 A Few Clouds FEW048 87.1 77 72% 99 30.25 1024.7
19 19:54 N 3 10.00 A Few Clouds FEW060 90 75.9 93.9 90 63% 102 30.24 1024.4
19 18:54 N 3 10.00 Fair CLR 90 77 66% 103 30.24 1024.4
19 17:54 N 6 10.00 Fair CLR 91.9 75 58% 103 30.24 1024.3
19 16:54 Calm 10.00 Fair CLR 93 71.1 49% 100 30.25 1024.6
19 15:54 Vrbl 3 10.00 A Few Clouds FEW047 93 71.1 49% 100 30.26 1024.9
19 14:54 Calm 10.00 Fair CLR 91.9 73 54% 101 30.26 1025.1
19 13:54 S 8 10.00 Fair CLR 91 73 91.9 81 56% 100 30.28 1025.4
Date Time (edt) Wind (mph) Vis. (mi.) Weather Sky Cond. Air Dwpt Max. Min. Relative Humidity Wind Chill (°F) Heat Index (°F) altimeter (in) sea level (mb) 1 hr 3 hr 6 hr
6 hour
Temperature (ºF) Pressure Precipitation (in)